User: anonymous   Login
Location: Radomski Observatory
(40.2854°N, 79.5145°W)
Time: 04:54:59
(UTC-05:00)
Language:

Cosmos 1072 Rocket - Orbit

View from above orbital plane
View from above orbital plane
View from above satellite
View from above satellite

Ground track
Ground track

The orbit data is extracted from the following two-line orbital elements,

1 11239U 79003B   18050.57455595 +.00000106 +00000-0 +92723-4 0  9998
2 11239 082.9354 264.9342 0041905 062.7502 352.8520 13.75814397961616
Epoch (UTC): 19 February 2018 13:47:21
Eccentricity: 0.0041905
inclination: 82.9354°
perigee height: 948 km
apogee height: 1009 km
right ascension of ascending node: 264.9342°
argument of perigee: 62.7502°
revolutions per day: 13.75814397
mean anomaly at epoch: 352.8520°
orbit number at epoch: 96161

The dashed part of the orbit path shows where the satellite is in the earth's shadow,  

DLR